Regional Weather Roundup
Issued by NWS Portland, ME

Current Version | Previous Version | Text Only | Print | Product List | Glossary Off
Versions: 1 2 3 4 5 6 7 8 9 10 11 12 13 14 15 16 17 18 19 20 21 22 23 24 25 26 27 28 29 30 31 32 33 34 35 36 37 38 39 40 41 42 43 44 45 46 47 48 49 50
000 ASUS41 KGYX 281605 RWRGYX WEATHER ROUNDUP FOR MAINE AND NEW HAMPSHIRE NATIONAL WEATHER SERVICE GRAY ME 1200 PM EDT TUE MAR 28 2017 MEZ002-005-006-010-012-015-018-020-021-024-026-027-029-281700- MAINE CITY SKY/WX TMP DP RH WIND PRES REMARKS PORTLAND CLOUDY 36 32 85 NE3 30.05F SANFORD CLOUDY 37 34 89 SE3 30.04F BAR HARBOR CLOUDY 34 31 88 E3 30.06R WISCASSET CLOUDY 36 34 92 CALM 30.07S ROCKLAND CLOUDY 35 33 92 E6 30.06F FRYEBURG CLOUDY 36 33 89 CALM 30.02F LEWISTONAUBURN MIX PCPN 37 35 92 CALM 30.04F AUGUSTA CLOUDY 32 30 92 CALM 30.05S WATERVILLE CLOUDY 34 31 88 CALM 30.02S BANGOR CLOUDY 33 31 92 SE5 30.05S GREENVILLE N/A 28 28 100 CALM 29.94F MILLINOCKET CLOUDY 30 29 96 VRB3 30.04F HOULTON CLOUDY 29 27 92 SE8 30.03F PRESQUE ISLE MIX PCPN 30 26 85 S10 30.03F FRENCHVILLE SNOW 26 22 84 SE13 29.99F VSB 1/2 WCI 15 CARIBOU MIX PCPN 29 24 82 SE6 30.01F $$ NHZ002-005-008-009-011-012-014-281700- NEW HAMPSHIRE CITY SKY/WX TMP DP RH WIND PRES REMARKS PORTSMOUTH CLOUDY 38 34 84 CALM 30.03F ROCHESTER CLOUDY 37 32 82 CALM 30.02F NASHUA CLOUDY 38 35 89 CALM 30.04S MANCHESTER CLOUDY 38 32 79 VRB3 30.02S CONCORD CLOUDY 37 34 89 CALM 30.03S LACONIA LGT RAIN 36 34 92 N3 30.02S PLYMOUTH DRIZZLE 35 34 96 NE3 30.01S BERLIN CLOUDY 38 31 76 CALM 29.94F WHITEFIELD CLOUDY 42 34 73 CALM 29.93F JAFFREY CLOUDY 38 36 92 VRB3 29.98F KEENE CLOUDY 42 37 82 CALM 29.99F LEBANON CLOUDY 39 36 89 NE6 29.97F MT WASHINGTON FOG 34 34 100 W36 N/A VSB 0 WCI 19 $$ VTZ005-007-008-281700- VERMONT CITY SKY/WX TMP DP RH WIND PRES REMARKS ST JOHNSBURY N/A 40 38 93 MISG 29.93F BURLINGTON CLOUDY 51 44 77 S12 29.88F $$ MAZ007-012-024-CTZ003-RIZ002-NYZ038-NYZ072-281700- SOUTHERN NEW ENGLAND AND NY CITY SKY/WX TMP DP RH WIND PRES REMARKS BOSTON CLOUDY 39 37 92 E8 30.03F WORCESTER FOG 36 35 96 E7 29.97F VSB<1/4 NANTUCKET CLOUDY 42 40 92 E13 29.98F PROVIDENCE CLOUDY 41 37 86 E6 30.01F HARTFORD CLOUDY 44 40 85 NE7 29.98F ALBANY LGT RAIN 50 43 77 S5 29.94F NEW YORK CITY LGT RAIN 43 40 89 NE14 29.93F VSB 1/2 $$ ANZ081-ANZ082-ANZ150-NHZ014-MEZ023>029-281700- COASTAL MARINE OBSERVATIONS STATION/POSITION TIME TEMP WIND PRES WAVE AIR SEA DIR/SP/G HT/PER (UTC) (F) (DEG/KT/KT) (MB) (FT/S) MOUNT DESERT ROC 1600 35 1017.3R MATINICUS ROCK 1500 35 50/ 8/ 9 1017.4R ISLE OF SHOALS 1500 36 50/ 6/ 7 1017.4R JEFFREYS LEDGE 1506 41 N/A 4/ 7 CASHES LEDGE BUO 1450 39 40 1017.2 5/ 7 GEORGES BANK BUO 1450 39 40 1015.4 4/ 7 $$ .............KEY.............. WCI - WIND CHILL TC - TEMPERATURE IN CELSIUS VSB - VISIBILITY IN MILES HX - HEAT INDEX FAIR- INDICATES FEW OR NO CLOUDS BELOW 12,000 FT, WITH NO SIGNIFICANT WEATHER AND/OR OBSTRUCTIONS TO VISIBILITY.

USA.gov is the U.S. government's official web portal to all federal, state and local government web resources and services.